Santiago de Cuba, Cuba

11:00 PM CDT on September 19, 2018 (GMT -0400)
Antonio Maceo International

Weather History for MUCU - June, 2018

Change the Weather History Date:

Wednesday, June 13, 2018

  Actual Average Record
Temperature  
Mean Temperature 82 °F -  
Max Temperature 88 °F 84 °F 90 °F (2015)
Min Temperature 75 °F 74 °F 71 °F (2013)
Cooling Degree Days 16    
Growing Degree Days 32 (Base 50)    
Moisture  
Dew Point 72 °F    
Average Humidity 73    
Maximum Humidity 89    
Minimum Humidity 51    
Precipitation  
Precipitation 0.00 in - - ()
Sea Level Pressure  
Sea Level Pressure 30.05 in    
Wind  
Wind Speed 4 mph ()    
Max Wind Speed 10 mph    
Max Gust Speed -    
Visibility 5.4 miles    
Events Rain , Thunderstorm    
Averages and records for this station are not official NWS values.
T = Trace of Precipitation, MM = Missing Value Source: Averaged Metar Reports

Daily Weather History Graph

Daily Weather History Graph

Search for Another Location

Airport or City:

Astronomy

Jun. 13, 2018 Rise Set
Actual Time 6:23 AM CDT 7:43 PM CDT
Civil Twilight 5:59 AM CDT 8:07 PM CDT
Nautical Twilight 5:29 AM CDT 8:37 PM CDT
Astronomical Twilight 4:59 AM CDT 9:07 PM CDT
Moon 6:13 AM CDT (6/13) 7:43 PM CDT (6/13)
Length of Visible Light 14h 08m
Length of Day
13h 19m
Waning Crescent, 0% of the Moon is Illuminated
Jun 13
Waning Crescent
Jun 13
New
Jun 20
First Quarter
Jun 28
Full
Jul 6
Last Quarter

Hourly Weather History & Observations

Time (CDT) Temp. Heat Index Dew Point Humidity Pressure Visibility Wind Dir Wind Speed Gust Speed Precip Events Conditions
12:51 AM 77.0 °F - 71.6 °F 83% 30.04 in 5.0 mi ENE 3.5 mph - N/A   Partly Cloudy
1:51 AM 77.0 °F - 71.6 °F 83% 30.04 in 5.0 mi NE 5.8 mph - N/A   Partly Cloudy
2:51 AM 77.0 °F - 71.6 °F 83% 30.01 in 5.0 mi NNE 2.3 mph - N/A   Partly Cloudy
3:54 AM 77.0 °F - 71.6 °F 83% 30.01 in 5.0 mi West 4.6 mph - N/A   Scattered Clouds
4:51 AM 75.2 °F - 71.6 °F 89% 30.01 in 5.0 mi North 3.5 mph - N/A   Scattered Clouds
5:54 AM 75.2 °F - 69.8 °F 83% 30.01 in 5.6 mi NE 5.8 mph - N/A   Partly Cloudy
6:53 AM 75.2 °F - 71.6 °F 89% 30.01 in 5.6 mi NNE 3.5 mph - N/A Thunderstorm Thunderstorm
7:53 AM 77.0 °F - 71.6 °F 83% 30.04 in 4.3 mi Variable 1.2 mph - N/A Rain Light Rain
8:51 AM 77.0 °F - 73.4 °F 89% 30.06 in 5.0 mi NNW 3.5 mph - N/A   Mostly Cloudy
9:50 AM 80.6 °F 85.4 °F 73.4 °F 79% 30.06 in 5.0 mi Variable 2.3 mph - N/A   Mostly Cloudy
10:52 AM 84.2 °F 90.9 °F 73.4 °F 70% 30.09 in 5.6 mi NNE 3.5 mph - N/A   Mostly Cloudy
11:50 AM 86.0 °F 93.4 °F 73.4 °F 66% 30.09 in 5.6 mi SW 4.6 mph - N/A   Scattered Clouds
12:51 PM 86.0 °F 91.8 °F 71.6 °F 62% 30.09 in 5.6 mi South 6.9 mph - N/A   Scattered Clouds
1:52 PM 86.0 °F 91.8 °F 71.6 °F 62% 30.06 in 5.6 mi SSE 9.2 mph - N/A   Scattered Clouds
2:00 PM 87 °F - 71 °F 51% 30.08 in 6 mi SSE 8.9 mph - -   Haze
2:50 PM 87.8 °F 93.8 °F 71.6 °F 58% 30.06 in 5.6 mi SSE 10.4 mph - N/A   Scattered Clouds
3:50 PM 86.0 °F 91.8 °F 71.6 °F 62% 30.04 in 5.6 mi South 9.2 mph - N/A   Scattered Clouds
4:50 PM 86.0 °F 91.8 °F 71.6 °F 62% 30.04 in 5.6 mi South 9.2 mph - N/A   Scattered Clouds
5:50 PM 86.0 °F 91.8 °F 71.6 °F 62% 30.04 in 5.6 mi South 5.8 mph - N/A   Scattered Clouds
6:53 PM 84.2 °F 89.6 °F 71.6 °F 66% 30.04 in 5.6 mi SSE 5.8 mph - N/A   Scattered Clouds
7:51 PM 82.4 °F 87.2 °F 71.6 °F 70% 30.04 in 5.6 mi SSE 5.8 mph - N/A   Partly Cloudy
8:00 PM 83 °F - 71 °F 59% 30.04 in 6 mi SSE 6.7 mph - -   Haze
8:51 PM 82.4 °F 86.3 °F 69.8 °F 66% 30.04 in 5.6 mi SSE 4.6 mph - N/A   Partly Cloudy
9:51 PM 82.4 °F 87.2 °F 71.6 °F 70% 30.06 in 5.6 mi SE 3.5 mph - N/A   Partly Cloudy
10:53 PM 78.8 °F - 69.8 °F 74% 30.06 in 5.6 mi ENE 4.6 mph - N/A   Partly Cloudy
11:51 PM 75.2 °F - 69.8 °F 83% 30.06 in 5.6 mi NE 4.6 mph - N/A   Partly Cloudy